Printer-friendly version

IAU Minor Planet Center

Minor Planet Center

MPEC 2005-L63 : 2005 LV30

The following Minor Planet Electronic Circular may be linked-to from your own Web pages, but must not otherwise be redistributed electronically.


Read MPEC 2005-L62 Read MPEC 2005-L64


M.P.E.C. 2005-L63                                Issued 2005 June 14, 04:34 UT

     The Minor Planet Electronic Circulars contain information on unusual
         minor planets and routine data on comets.  They are published
   on behalf of Commission 20 of the International Astronomical Union by the
          Minor Planet Center, Smithsonian Astrophysical Observatory,
                          Cambridge, MA 02138, U.S.A.

                  Supported in part by the Brinson Foundation
             Prepared using the Tamkin Foundation Computer Network

                              MPC@CFA.HARVARD.EDU
          URL http://cfa-www.harvard.edu/iau/mpc.html  ISSN 1523-6714

                                   2005 LV30

Observations:
     K05L30V* C2005 06 13.20338 13 17 24.21 +36 21 57.5          19.3 V EL063703
     K05L30V  C2005 06 13.21212 13 17 27.92 +36 21 09.2          19.6 V EL063703
     K05L30V  C2005 06 13.22084 13 17 31.63 +36 20 20.4          19.8 V EL063703
     K05L30V  C2005 06 13.22964 13 17 35.66 +36 19 30.7          18.5 V EL063703
     K05L30V  C2005 06 13.26712 13 17 52.04 +36 15 57.0          20.0 V EL063703
     K05L30V  C2005 06 13.26799 13 17 52.29 +36 15 52.8          19.6 V EL063703
     K05L30V  C2005 06 13.26885 13 17 52.62 +36 15 47.9          19.3 V EL063703
     K05L30V  C2005 06 13.26973 13 17 53.01 +36 15 43.0          19.9 V EL063703
     K05L30V  C2005 06 13.32939 13 18 19.00 +36 10 04.8          19.6 V EL063G96
     K05L30V  C2005 06 13.32980 13 18 19.22 +36 10 02.6          19.6 V EL063G96
     K05L30V  C2005 06 13.33022 13 18 19.36 +36 10 00.2          19.6 V EL063G96
     K05L30V  C2005 06 13.33064 13 18 19.54 +36 09 57.8          19.6 V EL063G96
     K05L30V  C2005 06 13.93266 13 22 39.97 +35 13 48.2                 EL063J95
     K05L30V  C2005 06 13.94333 13 22 44.30 +35 12 49.0                 EL063J95
     K05L30V  C2005 06 13.95387 13 22 48.74 +35 11 49.8          19.8 R EL063J95
     K05L30V  C2005 06 14.14579 13 24 09.90 +34 54 09.4          19.9 R EL063448
     K05L30V  C2005 06 14.15300 13 24 12.84 +34 53 29.4          19.6 R EL063448
     K05L30V  C2005 06 14.16049 13 24 15.90 +34 52 47.4          19.7 R EL063448
     K05L30V  C2005 06 14.17887 13 24 23.52 +34 51 06.0          19.1 R EL063651
     K05L30V  C2005 06 14.18067 13 24 24.33 +34 50 55.2          19.2 R EL063651
     K05L30V  C2005 06 14.18371 13 24 25.49 +34 50 37.8          19.3 R EL063651

Observer details:
448 Desert Moon Observatory.  Observer B. L. Stevens.  0.3-m
    Schmidt-Cassegrain + CCD.
651 Grasslands Observatory, Tucson.  Observer J. E. McGaha.  0.62-m f/5.1
    Newtonian reflector + CCD.
703 Catalina Sky Survey.  Observer R. Hill.  Measurers E. C. Beshore,
    C. M. Casey, E. J. Christensen, G. J. Garradd, A. D. Grauer, R. E. Hill,
    S. M. Larson, R. H. McNaught.  0.68-m Schmidt + CCD.
G96 Mt. Lemmon Survey.  Observer E. J. Christensen.  Measurers E. C. Beshore,
    C. M. Casey, E. J. Christensen, G. J. Garradd, A. Grauer, R. E. Hill,
    S. M. Larson, R. H. McNaught.  1.5-m reflector + CCD.
J95 Great Shefford.  Observer P. Birtwhistle.  0.30-m f/6.3 Schmidt-Cassegrain
    + CCD.

Orbital elements:
2005 LV30
Epoch 2005 May 30.0 TT = JDT 2453520.5                  MPC
M  12.15341              (2000.0)            P               Q
n   0.28452886     Peri.   26.60851     -0.86203693     -0.45365494
a   2.2893832      Node   124.57944     +0.40221996     -0.88365047
e   0.7247640      Incl.   15.93389     +0.30840142     -0.11558135
P   3.46           H   19.1           G   0.15
From 21 observations 2005 June 13-14.

Ephemeris:
2005 LV30                a,e,i = 2.29, 0.72, 16                  q = 0.6301
Date    TT    R. A. (2000) Decl.     Delta      r     Elong.  Phase     V
2005 06 09    12 41.70   +42 56.2    0.394    1.089    90.1    68.7    19.7
2005 06 19    13 53.44   +27 41.7    0.460    1.208   103.4    54.9    19.8
2005 06 29    14 34.65   +15 25.7    0.568    1.326   110.3    46.0    20.2
2005 07 09    15 02.62   +06 32.6    0.704    1.440   112.3    40.8    20.7
2005 07 19    15 24.47   +00 06.3    0.861    1.551   111.1    37.7    21.2
2005 07 29    15 43.25   -04 41.3    1.032    1.658   108.1    35.6    21.7

Timothy B. Spahr             (C) Copyright 2005 MPC           M.P.E.C. 2005-L63

Read MPEC 2005-L62 Read MPEC 2005-L64


Our Web policy. Index to the CBAT/MPC/ICQ pages.


Valid HTML 4.01!